Terug naar catalogus

WUHAN-1

ActiefWetenschapSSO
NORAD 59810·PAYLOAD·🇨🇳 China
Deze satellietnaam is nog niet bevestigd door officiële bronnen.

Gelanceerd May 21, 2024 vanaf Jiuquan Satellite Launch Center

Loading…

Volgende Passages (komende 24 uur)

TLE

VersSource: Space-Track

Epoch: Sep 14, 2026, 22:35 UTC

1 59810U 24095A   26257.94104359  .00003205  00000-0  19965-3 0  9993
2 59810  97.5284 335.4684 0004460 114.8624 245.3069 15.10275546127693

Volg WUHAN-1 in realtime met AllMySat

Download on the App Store